OpenBCM V2.0.3 (Linux)

Packet Radio Mailbox

IZ3LSV

[San Dona' di P. JN]

 Login: GUEST





  
I0OJJ  > AMSAT    18.07.26 09:49l 319 Lines 15205 Bytes #999 (0) @ WW
BID : A5R21_I0OJJ
Read: GUEST
Subj: 2Line Orbital Elements
Path: IZ3LSV<ED1ZAC<LU1DBQ<LU9DCE<VE3CGR<VE3TOK<IR0AAB<I0OJJ
Sent: 260716/0037z @:I0OJJ.ITA.EU [Rome] $:A5R21_I0OJJ

>From i0ojj@i0ojj.ampr.org Thu Jul 16 02:37:48 2026
Received: from i0ojj.ampr.org by i0ojj.ampr.org (JNOS2.0q.1) with SMTP
	id AA17064505 ; Thu, 16 Jul 2026 02:37:48 +0200
Received: by i0ojj.ampr.org with SMTP
	id AA17064502 ; Thu, 16 Jul 2026 02:26:25 +0200
Message-Id: <17064503@i0ojj.ampr.org>
>From: i0ojj@i0ojj.ampr.org

SB KEPS @ AMSAT  $ORB26197.1
2Line Orbital Elements 26197.AMSAT

QST de W1STR

AMSAT Orbital Elements for Amateur Satellites in TLE Format
>From Orbital Analysis Office
New England Sci-Tech STEM Education Center
Natick MA July 16, 2026
To all radio amateurs


These element sets describe the orbits of various satellites 
in use by the amateur radio community. For details see:
www.amsat.org/keplerian-elements-formats/

A daily update of element sets is available at:
www.amsat.org/tle/daily-bulletin.txt
or without bulletin text:
www.amsat.org/tle/dailytle.txt


AO-07
1 07530U 74089B   26196.56642186 -.00000033  00000-0  81816-4 0  9990
2 07530 101.9906 210.1087 0012659  77.6753  53.4398 12.53698596364076
UO-11
1 14781U 84021B   26196.88103810  .00000507  00000-0  57146-4 0  9998
2 14781  97.8076 162.1394 0009246  89.5955 270.6323 14.90849797261402
LO-19
1 20442U 90005G   26196.29868066  .00000038  00000-0  30320-4 0  9998
2 20442  98.8847 218.8780 0012544 121.1187 239.1229 14.34130762906429
AO-27
1 22825U 93061C   26196.73849277  .00000042  00000-0  32983-4 0  9994
2 22825  98.6868 264.1397 0008734  24.3720 335.7874 14.30949162711081
FO-29
1 24278U 96046B   26196.55347070  .00000004  00000-0  39317-4 0  9994
2 24278  98.5219  41.5371 0350345  23.0121 338.6291 13.53275706477008
GO-32
1 25397U 98043D   26196.86396539  .00000002  00000-0  21072-4 0  9991
2 25397  99.0086 190.3481 0002199 113.5643 246.5766 14.24433417455418
ISS
1 25544U 98067A   26196.76640667  .00004078  00000-0  82095-4 0  9993
2 25544  51.6311 158.6576 0006719 300.0875  59.9447 15.49019038576188
NO-44
1 26931U 01043C   26196.65613856  .00000014  00000-0  36081-4 0  9990
2 26931  67.0495 170.6372 0005919 266.7273  93.3152 14.31965117294520
SO-50
1 27607U 02058C   26196.74605781  .00000379  00000-0  62723-4 0  9992
2 27607  64.5518  40.6207 0074514 257.1595 102.1179 14.83099068268697
CO-55
1 27844U 03031E   26196.48745324  .00000133  00000-0  76487-4 0  9996
2 27844  98.6744 204.6909 0010836 101.9513 258.2882 14.24351670195703
RS-22
1 27939U 03042A   26196.88307853  .00000387  00000-0  67815-4 0  9994
2 27939  98.3467  22.0541 0011258 171.1036 326.3276 14.73514816219774
CO-65
1 32785U 08021C   26196.88379784  .00002631  00000-0  16739-3 0  9995
2 32785  97.8294 178.9074 0006956 296.6909  63.3606 15.09705057989525
CO-66
1 32791U 08021J   26196.52520748  .00011174  00000-0  34561-3 0  9996
2 32791  97.7522 195.7974 0003105 155.6560 204.4829 15.33674625991634
RS-30
1 32953U 08025A   26196.82913568 -.00000020  00000-0 -21606-3 0  9995
2 32953  82.5058 337.6219 0018605 247.5034 112.4077 12.43180618823254
SRMSAT
1 37841U 11058D   26196.43842265  .00000333  00000-0  37014-4 0  9994
2 37841  19.9710 248.4743 0011766 153.8769 331.6515 14.11581130761816
ZACUBE-1
1 39417U 13066B   26196.86778602  .00001228  00000-0  98374-4 0  9996
2 39417  97.8008 159.3459 0044051 153.0544 207.2981 15.01330535685037
Delfi-N3xt
1 39428U 13066N   26196.75343506  .00002944  00000-0  25732-3 0  9990
2 39428  97.8328 117.0413 0075695 111.0127 249.9212 14.95363016678892
GOMX-1
1 39430U 13066Q   26196.78402047  .00000701  00000-0  11195-3 0  9999
2 39430  97.6466  35.4421 0128200 346.3187  13.4557 14.69543634674112
LO-74
1 39440U 13066AA  26196.86496091  .00002083  00000-0  19551-3 0  9990
2 39440  97.8915 145.9709 0055631 293.0759  66.4601 14.93969667681278
AO-73
1 39444U 13066AE  26196.88912522  .00003677  00000-0  22787-3 0  9993
2 39444  97.8290 168.9436 0037990 105.4335 255.1095 15.09822727683992
DTUSAT-2
1 40030U 14033W   26195.97454294  .00003349  00000-0  18144-3 0  9995
2 40030  98.0873 195.4742 0009313 132.4073 227.7947 15.15350472656897
LILACSAT-2
1 40908U 15049K   26196.83624764  .00012542  00000-0  20702-3 0  9992
2 40908  97.4622 234.7802 0008444 139.6571 220.5310 15.52374891600195
Lapan A3
1 41603U 16040E   26196.84273980  .00001848  00000-0  59763-4 0  9995
2 41603  97.1505 192.0521 0008243 273.3791  86.6509 15.33280505559209
CAS-2T
1 41847U 16066G   26196.77446231  .00000524  00000-0  81899-4 0  9991
2 41847  98.3814 272.1835 0342203  43.0069 319.7332 14.44771111508926
TechnoSat
1 42829U 17042E   26196.43899655  .00001660  00000-0  12049-3 0  9994
2 42829  97.4317 353.0287 0017408   2.7340 357.3979 15.05111872490953
AO-91
1 43017U 17073E   26196.31745535  .00004345  00000-0  19078-3 0  9994
2 43017  97.4665  62.9591 0148270 231.0626 127.7313 15.13061529469644
S-Net D
1 43186U 18014G   26196.63103245  .00002654  00000-0  13807-3 0  9993
2 43186  97.5333 101.2453 0006209 283.0320  77.0220 15.16920297463075
S-Net B
1 43187U 18014H   26196.64304466  .00002463  00000-0  12848-3 0  9995
2 43187  97.5338 101.2446 0006841 276.7896  83.2558 15.16889958463073
S-Net A
1 43188U 18014J   26196.62975302  .00002717  00000-0  14119-3 0  9992
2 43188  97.5348 101.4458 0006705 277.8489  82.1983 15.16928771463076
S-Net C
1 43189U 18014K   26196.64707332  .00002432  00000-0  12688-3 0  9994
2 43189  97.5366 101.5419 0008104 268.4533  91.5771 15.16881245461628
Ten-Koh
1 43677U 18084G   26196.48470418  .00001662  00000-0  12824-3 0  9993
2 43677  98.0759  30.0384 0009862  29.5308 330.6472 15.03047312420419
PO-101
1 43678U 18084H   26196.84444690  .00001091  00000-0  91544-4 0  9990
2 43678  98.1211  34.3078 0012801  82.4503 277.8174 15.00564951420515
QO-100
1 43700U 18090A   26196.77604286  .00000134  00000-0  00000+0 0  9993
2 43700   0.0172  48.3163 0002230 110.7315  79.7199  1.00271226 27963
MinXSS-2
1 43758U 18099A   26196.73011947  .00026112  00000-0  48532-3 0  9997
2 43758  97.4529 273.8898 0008560 158.8833 201.2773 15.48848170418545
AO-95
1 43770U 18099N   26196.12445782  .00006428  00000-0  24321-3 0  9990
2 43770  97.4371 256.2762 0007249 240.1261 119.9258 15.27272459417485
SNUSat 2
1 43782U 18099AA  26196.07689590  .00004533  00000-0  19993-3 0  9998
2 43782  97.4044 249.0368 0010190 188.1479 171.9594 15.22238962417272
SnugLite
1 43784U 18099AC  26196.11623635  .00006611  00000-0  24651-3 0  9999
2 43784  97.3852 250.1296 0003627 159.8729 200.2654 15.27757211417588
ITASat 1
1 43786U 18099AE  26196.14602740  .00003624  00000-0  17427-3 0  9992
2 43786  97.4013 247.1033 0010869 250.6070 109.3990 15.19381680417159
EAGLET 1
1 43790U 18099AJ  26196.09364275  .00002285  00000-0  13248-3 0  9998
2 43790  97.4217 245.0241 0009607 244.7240 115.2996 15.13133242416557
ESEO
1 43792U 18099AL  26196.05161341  .00001411  00000-0  10530-3 0  9996
2 43792  97.3957 232.2453 0010917 234.3147 125.7064 15.04321844415995
JO-97
1 43803U 18099AX  26196.73027738  .00011010  00000-0  33119-3 0  9999
2 43803  97.4114 259.6785 0006910 156.5802 203.5757 15.34531069418000
Suomi 100
1 43804U 18099AY  26196.15585158  .00006802  00000-0  24361-3 0  9993
2 43804  97.4172 256.4544 0010516 172.3651 187.7751 15.29031975417694
ISAT
1 43879U 18111D   26196.81472399  .00083421  00000-0  66262-3 0  9993
2 43879  97.5858 134.3603 0007866 137.5512 222.6360 15.70959294415659
UWE-4
1 43880U 18111E   26196.35233479  .00020350  00000-0  39289-3 0  9999
2 43880  97.5850 126.0767 0006289 193.5981 166.5100 15.47824446415137
Sparrow
1 43881U 18111F   26196.83031634  .00204155  00000-0  84500-3 0  9995
2 43881  97.6094 140.6193 0008419 139.5690 220.6207 15.85257920415890
Prox-1
1 44339U 19036A   26196.36723290  .00006171  00000-0  57709-3 0  9994
2 44339  23.9950 285.9151 0006014  10.1561 349.9060 14.91249435377683
Taurus 1
1 44530U 19059C   26196.85556133  .00003269  00000-0  52496-3 0  9999
2 44530  98.6433   3.4712 0008037 213.4950 146.5748 14.72373916362863
TO-108
1 44881U 19093C   26196.85409093 -.00000151  00000-0 -11010-4 0  9995
2 44881  97.7526 268.3858 0013571 359.4719   0.6480 14.86559841355673
RS-44
1 44909U 19096E   26196.77564657  .00000008  00000-0 -18031-4 0  9998
2 44909  82.5242 320.7086 0218527  77.6409 284.9058 12.79748935306005
SALSAT
1 46495U 20068K   26196.46428795  .00004051  00000-0  14153-3 0  9990
2 46495  97.8855 201.2595 0009214 191.9024 168.1999 15.30174422319687
CSS (TIANHE-1)
1 48274U 21035A   26196.53543323  .00001219  00000-0  20014-4 0  9992
2 48274  41.4690 149.7716 0002229 300.3824  59.6794 15.58093729297592
CUTE
1 49263U 21088D   26196.79655434  .03733040  24724-5  10683-2 0  9994
2 49263  97.3958 299.2359 0012959 282.5095  77.4748 16.27350180267132
TeikyoSat 4
1 49396U 21102B   26196.69021021  .00001179  00000-0  77063-4 0  9997
2 49396  97.3664 225.0657 0011790 186.7598 173.3474 15.09600016257020
Z-Sat
1 49399U 21102E   26196.86551836  .00001150  00000-0  58850-4 0  9993
2 49399  97.3309 231.3188 0017678 142.0873 218.1610 15.18463752257798
KOSEN 1
1 49402U 21102H   26196.05696261  .00004499  00000-0  17088-3 0  9997
2 49402  97.3170 237.6768 0015406 108.0940 252.1979 15.27213078258270
HO-113
1 50466U 21131B   26196.86330696  .00000270  00000-0  96878-4 0  9995
2 50466  98.4993 289.0983 0004556  28.6409 331.5029 14.41382051239245
SNUGLITE 2
1 52899U 22065F   26196.38768794  .00000409  00000-0  86510-4 0  9991
2 52899  98.2235 341.1739 0006233 299.9798  60.0785 14.64394361215127
UmKA 1 (RS40S)
1 57172U 23091G   26196.77792997  .00003571  00000-0  16330-3 0  9990
2 57172  97.5035 255.3684 0012992  27.6908 332.5017 15.21125695168352
CubeBel-2 (EU11S)
1 57175U 23091K   26196.77343502  .00007417  00000-0  25908-3 0  9991
2 57175  97.5035 260.2569 0009489  24.5503 335.6187 15.29832641168677
